User: anonymous   Login
Location: ?
(35.4064°N, 139.3593°E)
Time: 20:57:04
(UTC+00:00)
Language:

PAYLOAD A - Orbit

View from above orbital plane
View from above orbital plane
View from above satellite
View from above satellite

Ground track
Ground track

The orbit data is extracted from the following two-line orbital elements,

1 27840U 03031A   24165.48928779  .00000286  00000-0  10121-3 0  9994
2 27840  98.5314 132.9896 0097892  13.3679 347.0068 14.39373998100437
Epoch (UTC): 13 June 2024 11:44:34
Eccentricity: 0.0097892
inclination: 98.5314°
perigee height: 690 km
apogee height: 830 km
right ascension of ascending node: 132.9896°
argument of perigee: 13.3679°
revolutions per day: 14.39373998
mean anomaly at epoch: 347.0068°
orbit number at epoch: 10043

The dashed part of the orbit path shows where the satellite is in the earth's shadow,  

DLR